Location: Étavigny
(49.1201°N, 2.9800°E)
Time: 11:39:38
(UTC+00:00)

Cosmos 2278 - Visible Passes

Search period start: 28 September 2023 00:00
Search period end: 08 October 2023 00:00
Orbit: 838 x 853 km, 71.1° (Epoch: 28 September)

Date Brightness Start Highest point End Pass type
(mag) Time Alt. Az. Time Alt. Az. Time Alt. Az.
28 Sep 5.7 01:16:14 10° NNW 01:18:15 22° N 01:18:15 22° N visible
28 Sep 5.2 17:56:47 10° WSW 18:02:04 38° NW 18:07:24 10° NNE visible
28 Sep 6.5 19:45:45 10° NW 19:47:57 12° NNW 19:50:10 10° N visible
28 Sep 6.3 23:19:21 10° N 23:22:03 14° NNE 23:22:03 14° NNE visible
29 Sep 6.0 01:02:23 10° NNW 01:03:54 18° NNW 01:03:54 18° NNW visible
29 Sep 6.4 19:31:45 10° NW 19:34:03 12° NNW 19:36:21 10° N visible
29 Sep 6.3 23:05:32 10° N 23:07:50 13° NNE 23:07:50 13° NNE visible
30 Sep 6.1 00:48:32 10° NNW 00:49:42 16° NNW 00:49:42 16° NNW visible
30 Sep 6.4 19:17:46 10° NW 19:20:09 12° NNW 19:22:32 10° N visible
30 Sep 6.3 22:51:42 10° N 22:53:44 13° NNE 22:53:44 13° NNE visible
01 Oct 6.2 00:34:40 10° NNW 00:35:36 15° NNW 00:35:36 15° NNW visible
01 Oct 6.4 19:03:47 10° NW 19:06:14 13° NNW 19:08:43 10° N visible
01 Oct 6.3 22:37:53 10° N 22:39:42 13° NNE 22:39:42 13° NNE visible
02 Oct 6.3 00:20:50 10° NNW 00:21:34 14° NNW 00:21:34 14° NNW visible
02 Oct 6.3 18:49:48 10° NW 18:52:20 13° NNW 18:54:54 10° N visible
02 Oct 6.3 22:24:03 10° N 22:25:44 13° NNE 22:25:44 13° NNE visible
03 Oct 6.4 00:06:57 10° NNW 00:07:36 13° NNW 00:07:36 13° NNW visible
03 Oct 6.3 18:35:48 10° NW 18:38:26 13° NNW 18:41:04 10° N visible
03 Oct 6.3 22:10:14 10° N 22:11:49 12° NNE 22:11:49 12° NNE visible
03 Oct 6.4 23:53:06 10° NNW 23:53:40 13° NNW 23:53:40 13° NNW visible
04 Oct 6.2 18:21:50 10° WNW 18:24:32 13° NNW 18:27:14 10° N visible
04 Oct 6.3 21:56:24 10° N 21:57:56 12° NNE 21:57:56 12° NNE visible
04 Oct 6.5 23:39:15 10° NNW 23:39:48 13° NNW 23:39:48 13° NNW visible
05 Oct 6.2 18:07:51 10° WNW 18:10:37 14° NNW 18:13:24 10° N visible
05 Oct 6.3 21:42:35 10° N 21:44:04 12° NNE 21:44:04 12° NNE visible
05 Oct 6.5 23:25:24 10° NNW 23:25:56 13° NNW 23:25:56 13° NNW visible
06 Oct 6.2 17:53:52 10° WNW 17:56:43 14° NNW 17:59:34 10° N visible
06 Oct 6.3 21:28:46 10° N 21:30:14 12° NNE 21:30:14 12° NNE visible
06 Oct 6.5 23:11:32 10° NNW 23:12:06 13° NNW 23:12:06 13° NNW visible
07 Oct 6.2 21:14:56 10° N 21:16:26 12° NNE 21:16:26 12° NNE visible
07 Oct 6.5 22:57:40 10° NNW 22:58:18 13° NNW 22:58:18 13° NNW visible
